Weather Roundup
Issued by NWS Springfield, MO

Home | Current Version | Previous Version | Text Only | Print | Product List | Glossary On
Versions: 1 2 3 4 5 6 7 8 9 10 11 12 13 14 15 16 17 18 19 20 21 22 23 24 25 26 27 28 29 30 31 32 33 34 35 36 37 38 39 40 41 42 43 44 45 46 47 48 49 50
553
NZUS99 KSGF 010107
HRRSGF

HOURLY WEATHER
NATIONAL WEATHER SERVICE SPRINGFIELD MO
800 PM CDT SUN APR 30 2017

......SGF CWA......

CITY           SKY/WX    TMP DP  RH WIND       PRES   REMARKS
SPRINGFIELD    LGT RAIN  50  41  71 SW20      29.57R
JOPLIN         CLOUDY    50  40  68 S20G32    29.54S
WEST PLAINS    PTCLDY    58  42  55 SW16G29   29.61R
ROLLA          PTCLDY    62  45  53 SW16G26   29.51R
OSAGE BEACH    CLOUDY    58  41  53 SW16G24   29.54R
BRANSON        LGT RAIN  54  39  58 SW20G33   29.62R FOG

......SURROUNDING SGF CWA......

CITY           SKY/WX    TMP DP  RH WIND       PRES   REMARKS
CHANUTE        LGT RAIN  46  42  86 S16       29.49S
PARSONS        CLOUDY    46  43  89 S7        29.51R
COFFEYVILLE    CLOUDY    47  42  83 S14       29.51S
EMPORIA        LGT RAIN  44  42  93 S9        29.45S
GROVE OK       CLOUDY    52  37  58 S16G26    29.58R
ROGERS AR      LGT RAIN  50  35  56 SW21G31   29.60R
SILOAM SPRINGS CLOUDY    50  32  50 SW20G33   29.60R
HARRISON AR    LGT RAIN  52  40  63 S14G21    29.62S
NEAR YELLVILLE MOCLDY   N/A N/A N/A S14G23    29.61R

......KANSAS AND MISSOURI......

CITY           SKY/WX    TMP DP  RH WIND       PRES   REMARKS
KANSAS CTY INT LGT RAIN  47  41  80 S17G29    29.49R
DOWNTOWN KC    LGT RAIN N/A N/A N/A SW14G28   29.50R
COLUMBIA       CLOUDY    58  47  66 SW20G28   29.52R
SEDALIA        CLOUDY    54  39  57 SW26G35   29.54R
ST JOSEPH      CLOUDY    50  42  74 S10       29.48S
ST LOUIS       CLOUDY    71  59  65 S10       29.50S
SPIRIT OF STL  PTCLDY    68  61  78 S9          N/A
KIRKSVILLE     MOCLDY    53  31  42 CALM      29.48R
WICHITA        LGT RAIN  43  41  93 NW18G29   29.48R
TOPEKA         CLOUDY    47  45  93 SE7       29.46S
OLATHE         CLOUDY    46  42  86 S10       29.49S

......TENNESSEE......

CITY           SKY/WX    TMP DP  RH WIND       PRES   REMARKS
MEMPHIS        CLOUDY    66  54  65 S14       29.72R
NASHVILLE      CLOUDY    69  63  81 S13       29.79R

......ARKANSAS.......

CITY           SKY/WX    TMP DP  RH WIND       PRES   REMARKS
FAYETTEVILLE   CLOUDY    50  35  56 SW22G36   29.62R
FT SMITH       CLOUDY    57  33  40 SW23G33   29.67R
LITTLE ROCK    PTCLDY    58  44  60 SW15G24   29.74S

......OKLAHOMA.......

CITY           SKY/WX    TMP DP  RH WIND       PRES   REMARKS
TULSA          LGT RAIN  50  41  71 SW24G35   29.58R
PONCA CITY     CLOUDY    47  41  80 W15G28    29.53R
MCALESTER      LGT RAIN  53  34  48 SW24G44   29.71R
OKLAHOMA CITY  CLOUDY    53  36  52 W25G38    29.69R

......IOWA............

CITY           SKY/WX    TMP DP  RH WIND       PRES   REMARKS
DES MOINES     CLOUDY    46  44  93 VRB3      29.49S
QUAD CITIES    TSTM      48  46  93 E17       29.52F

......ILLINOIS........

CITY           SKY/WX    TMP DP  RH WIND       PRES   REMARKS
QUINCY         LGT RAIN  57  55  93 CALM      29.48S
CHICAGO        HVY RAIN  44  42  93 NE10      29.68F FOG




USA.gov is the U.S. government's official web portal to all federal, state and local government web resources and services.